[[{"header":{"parameterUnit":"m.s-1","parameterCategory":1,"la1":30.2991,"la2":30.254,"lo1":-89.0895,"lo2":-89.0444,"dy":0.0017,"dx":0.0017,"nx":28,"ny":28,"refTime":"2023-10-27T21:00:00:Z","depth":0,"parameterNumber":2,"parameterNumberName":"U-component_of_WINDS"},"data":[0,0,0,0,0,0,0,0,0,0,0,0,0,0,0,0,0,0,0,0,0,0,0,0,0,0,0,0,0,0,0,0,0,0,0,0,0,0,0,0,0,0,0,0,0,0,0,0,0,0,0,0,0,0,0,0,0,0,-3.2852,-3.2852,0,-3.2823,-3.2823,-3.2823,-3.2737,-3.2735,-3.2733,-3.2731,-3.2702,-3.2703,-3.2704,0,0,0,0,0,0,0,0,0,0,0,0,0,-3.2835,-3.2836,-3.2852,-3.2852,-3.2851,-3.2823,-3.2823,-3.2822,-3.2737,-3.2735,-3.2733,-3.2731,-3.2702,-3.2703,-3.2704,0,0,0,0,0,0,0,0,0,0,0,0,0,-3.2828,-3.2836,-3.2852,-3.2805,-3.2801,-3.2823,-3.2823,-3.2822,-3.2738,-3.2735,-3.2732,-3.2729,-3.2702,-3.2703,-3.2705,-3.277,0,0,-3.2709,-3.271,0,0,0,0,0,0,0,0,-3.2828,-3.2829,-3.2813,-3.2809,-3.2804,-3.2781,-3.2806,-3.2805,-3.2738,-3.2762,-3.2731,-3.2728,-3.2731,-3.273,-3.273,-3.2769,-3.2767,-3.2709,-3.271,-3.2711,-3.2711,0,0,0,0,0,0,0,-3.2829,-3.2829,-3.284,-3.2812,-3.2807,-3.2786,-3.2782,-3.2805,-3.2762,-3.2759,-3.2753,-3.2751,-3.2728,-3.2729,-3.2729,-3.2767,-3.2709,-3.271,-3.2711,-3.2712,-3.2859,-3.2862,0,0,0,0,0,0,-3.2836,-3.283,-3.2841,-3.284,-3.2809,-3.2789,-3.2784,-3.2791,-3.2762,-3.2755,-3.2753,-3.2747,-3.2728,-3.2728,-3.2728,-3.2803,-3.2711,-3.2712,-3.2713,-3.2856,-3.286,-3.2863,0,0,0,0,0,0,-3.2836,-3.2838,-3.2843,-3.2833,-3.2832,-3.2792,-3.28,-3.2792,-3.2793,-3.2757,-3.2749,-3.2763,-3.2726,-3.2726,-3.276,-3.2801,-3.2713,-3.2714,-3.2853,-3.2857,-3.2861,-3.2954,0,0,0,0,0,0,-3.2836,-3.2838,-3.2862,-3.2834,-3.2833,-3.2875,-3.2803,-3.2793,-3.2796,-3.2787,-3.2764,-3.2757,-3.2724,-3.2759,-3.2762,-3.2801,-3.2715,-3.2849,-3.2855,-3.286,-3.2947,-3.2961,-3.2973,0,0,0,0,0,-3.2835,-3.2889,-3.2864,-3.2865,-3.2862,-3.2878,-3.2877,-3.2837,-3.2799,-3.2823,-3.2801,-3.2758,-3.2796,-3.2763,-3.2766,-3.2806,-3.2846,-3.2853,-3.286,-3.2941,-3.2958,-3.2972,0,0,0,0,0,0,-3.2921,-3.2884,-3.2856,-3.2902,-3.2894,-3.2863,-3.2892,-3.2856,-3.2859,-3.285,-3.2801,-3.2797,-3.2839,-3.2826,-3.279,-3.2869,-3.2814,-3.2822,-3.2875,-3.2891,-3.2904,-3.2905,-3.2716,0,0,0,0,0,-3.2946,-3.2961,-3.2928,-3.2972,-3.297,-3.2932,-3.2937,-3.2908,-3.2897,-3.2893,-3.2873,-3.2865,-3.2875,-3.2882,-3.289,-3.2945,-3.2939,-3.2975,-3.2988,-3.2998,-3.3005,-3.3035,-3.305,-3.2885,-3.2885,-3.2885,0,0,-3.2996,-3.2978,-3.299,-3.2989,-3.2979,-3.2997,-3.2929,-3.2951,-3.2964,-3.2896,-3.2928,-3.2913,-3.2901,-3.2947,-3.2966,-3.2937,-3.305,-3.3007,-3.3016,-3.3017,-3.3043,-3.3059,-3.3073,-3.289,-3.2889,-3.2888,0,0,-3.3096,-3.3084,-3.312,-3.3112,-3.3098,-3.3073,-3.3082,-3.3058,-3.3046,-3.3077,-3.3027,-3.3042,-3.3061,-3.3054,-3.3053,-3.3155,-3.3116,-3.3159,-3.3226,-3.3255,-3.3268,-3.328,-3.3316,-3.3329,-3.3166,-3.3167,-3.3167,0,-3.316,-3.3184,-3.3142,-3.3167,-3.3169,-3.311,-3.3146,-3.3141,-3.313,-3.3133,-3.3102,-3.3125,-3.3112,-3.3156,-3.3181,-3.3183,-3.3192,-3.316,-3.327,-3.3281,-3.3291,-3.3325,-3.3338,-3.3172,-3.3171,-3.3171,-3.317,0,-3.3264,-3.3282,-3.3313,-3.3305,-3.331,-3.334,-3.3304,-3.3314,-3.3285,-3.3264,-3.3297,-3.3281,-3.3284,-3.3293,-3.3264,-3.3334,-3.3316,-3.3279,-3.3222,-3.3312,-3.3343,-3.3356,-3.318,-3.3178,-3.3176,-3.3175,0,0,-3.3414,-3.3385,-3.3397,-3.3393,-3.3376,-3.3389,-3.3418,-3.3422,-3.3432,-3.3428,-3.3451,-3.3469,-3.3435,-3.3434,-3.3405,-3.3431,-3.3513,-3.3389,-3.3388,-3.3413,-3.3588,-3.3616,-3.3632,-3.3488,-3.349,-3.3492,-3.3589,0,-3.3509,-3.3556,-3.352,-3.3574,-3.359,-3.3537,-3.3562,-3.3554,-3.3536,-3.3548,-3.3529,-3.3542,-3.3496,-3.3495,-3.3518,-3.3498,-3.3547,-3.3491,-3.3509,-3.351,-3.3512,-3.3648,-3.3677,-3.3769,-3.3601,-3.3603,-3.3605,0,-3.3624,-3.3627,-3.3682,-3.3662,-3.3668,-3.3691,-3.3693,-3.3705,-3.3696,-3.3682,-3.3683,-3.3647,-3.3675,-3.3622,-3.366,-3.3622,-3.3628,-3.362,-3.3622,-3.3621,-3.3562,-3.365,-3.3798,-3.3811,-3.3623,-3.3622,-3.362,0,-3.3728,-3.3745,-3.3781,-3.3779,-3.3757,-3.3775,-3.3767,-3.3756,-3.3761,-3.3763,-3.3766,-3.3772,-3.3774,-3.378,-3.3747,-3.3711,-3.379,-3.3733,-3.3778,-3.3779,-3.3795,-3.3795,-3.3945,-3.3802,-3.3801,-3.3801,-3.3801,0,-3.3837,-3.3873,-3.3827,-3.3849,-3.3888,-3.3848,-3.3888,-3.3874,-3.3865,-3.3884,-3.3838,-3.3857,-3.3813,-3.3828,-3.3803,-3.3839,-3.384,-3.3829,-3.3822,-3.3833,-3.3834,-3.3835,-3.3827,-3.3805,-3.3804,-3.3803,-3.3803,0,-3.3958,-3.3929,-3.3964,-3.3942,-3.3937,-3.3967,-3.3948,-3.3968,-3.3948,-3.3972,-3.3976,-3.3944,-3.3959,-3.3928,-3.3939,-3.3922,-3.3972,-3.3955,-3.3975,-3.397,-3.4016,-3.4012,-3.4172,-3.4191,-3.4036,-3.4037,-3.4039,0,-3.4028,-3.4055,-3.4036,-3.4046,-3.404,-3.4056,-3.4062,-3.4024,-3.4032,-3.4026,-3.4046,-3.4058,-3.4064,-3.4091,-3.407,-3.4078,-3.406,-3.4116,-3.4061,-3.4072,-3.406,-3.4059,-3.4062,-3.4127,-3.4128,-3.413,-3.4131,0,-3.4156,-3.4141,-3.4151,-3.4157,-3.4165,-3.4168,-3.4167,-3.4178,-3.4138,-3.415,-3.4165,-3.4171,-3.4182,-3.4194,-3.4198,-3.419,-3.4155,-3.4149,-3.416,-3.417,-3.418,-3.4175,-3.4005,-3.4145,-3.4144,-3.4143,-3.4142,-3.4141,-3.4253,-3.4275,-3.4266,-3.4279,-3.4275,-3.4276,-3.4294,-3.4277,-3.4289,-3.4296,-3.4274,-3.4294,-3.4287,-3.4288,-3.4284,-3.43,-3.4275,-3.4291,-3.4294,-3.4299,-3.4306,-3.418,-3.4301,-3.43,-3.43,-3.43,-3.4299,0,-3.4378,-3.437,-3.4383,-3.4384,-3.4396,-3.4363,-3.4361,-3.4372,-3.4391,-3.4387,-3.4395,-3.4414,-3.4426,-3.4407,-3.4416,-3.4432,-3.4416,-3.4436,-3.4434,-3.4432,-3.4328,-3.4317,-3.4449,-3.4449,-3.4449,-3.4449,-3.4449,-3.4449,-3.4444,-3.448,-3.4464,-3.4498,-3.4489,-3.4509,-3.4511,-3.4513,-3.451,-3.4532,-3.4542,-3.453,-3.452,-3.4529,-3.4539,-3.4533,-3.4538,-3.4564,-3.4552,-3.4454,-3.444,-3.4426,-3.4416,-3.4565,-3.4565,-3.4655,-3.4656,-3.4657]},{"header":{"parameterUnit":"m.s-1","parameterCategory":1,"la1":30.2991,"la2":30.254,"lo1":-89.0895,"lo2":-89.0444,"dy":0.0017,"dx":0.0017,"nx":28,"ny":28,"refTime":"2023-10-27T21:00:00:Z","depth":0,"parameterNumber":3,"parameterNumberName":"V-component_of_WINDS"},"data":[0,0,0,0,0,0,0,0,0,0,0,0,0,0,0,0,0,0,0,0,0,0,0,0,0,0,0,0,0,0,0,0,0,0,0,0,0,0,0,0,0,0,0,0,0,0,0,0,0,0,0,0,0,0,0,0,0,0,1.6849,1.685,0,1.6913,1.6913,1.6914,1.7027,1.7029,1.7032,1.7034,1.7093,1.7093,1.7092,0,0,0,0,0,0,0,0,0,0,0,0,0,1.6823,1.6823,1.6849,1.685,1.6851,1.6912,1.6913,1.6914,1.7027,1.703,1.7032,1.7035,1.7093,1.7093,1.7092,0,0,0,0,0,0,0,0,0,0,0,0,0,1.6855,1.6823,1.6849,1.6915,1.6921,1.6912,1.6913,1.6914,1.7026,1.703,1.7033,1.7036,1.7094,1.7093,1.7092,1.7023,0,0,1.709,1.709,0,0,0,0,0,0,0,0,1.6853,1.6856,1.6904,1.691,1.6917,1.6966,1.6926,1.6951,1.7026,1.6986,1.7034,1.7038,1.7048,1.7051,1.7056,1.7026,1.7028,1.709,1.709,1.7089,1.7089,0,0,0,0,0,0,0,1.6851,1.6854,1.6874,1.6905,1.6913,1.694,1.6948,1.6931,1.6998,1.699,1.6998,1.7005,1.7052,1.7056,1.7058,1.7029,1.709,1.709,1.7089,1.7089,1.6948,1.6945,0,0,0,0,0,0,1.684,1.6851,1.6872,1.6876,1.6893,1.6938,1.6947,1.6947,1.6998,1.7009,1.7002,1.701,1.7055,1.7058,1.706,1.6984,1.709,1.7089,1.7089,1.6952,1.6948,1.6944,0,0,0,0,0,0,1.6839,1.684,1.687,1.6866,1.6872,1.6935,1.6934,1.6946,1.695,1.7007,1.7019,1.6994,1.7058,1.7061,1.7032,1.6988,1.7089,1.7088,1.6956,1.695,1.6946,1.683,0,0,0,0,0,0,1.6837,1.6839,1.6814,1.6865,1.6872,1.6841,1.6931,1.6945,1.695,1.696,1.7003,1.7013,1.7061,1.7033,1.7032,1.6989,1.7087,1.696,1.6953,1.6947,1.6838,1.6822,1.6808,0,0,0,0,0,1.6836,1.6777,1.6812,1.6814,1.6841,1.6838,1.6842,1.69,1.6945,1.692,1.6958,1.7012,1.6993,1.7029,1.7029,1.6985,1.6963,1.6955,1.6948,1.6845,1.6825,1.6808,0,0,0,0,0,0,1.6717,1.6785,1.6824,1.678,1.6803,1.6857,1.6827,1.6876,1.6885,1.6894,1.6964,1.6973,1.6935,1.6957,1.6996,1.6922,1.6987,1.6979,1.6908,1.689,1.6875,1.687,1.7087,0,0,0,0,0,1.6686,1.6679,1.6738,1.6693,1.6703,1.6763,1.6763,1.6807,1.6832,1.6841,1.6876,1.6898,1.6897,1.6895,1.6897,1.6843,1.6854,1.6812,1.6797,1.6784,1.6776,1.6751,1.6734,1.6919,1.6919,1.692,0,0,1.6621,1.6657,1.6648,1.667,1.6693,1.6683,1.677,1.6755,1.6749,1.6839,1.6815,1.6841,1.687,1.6828,1.6811,1.6845,1.6728,1.6775,1.6764,1.6763,1.6741,1.6724,1.6708,1.6914,1.6915,1.6916,0,0,1.6498,1.6524,1.6491,1.6513,1.6547,1.6588,1.658,1.6628,1.6649,1.6627,1.6695,1.6688,1.6684,1.6703,1.6712,1.6599,1.665,1.6598,1.6518,1.6492,1.6478,1.6465,1.6425,1.641,1.659,1.659,1.6589,0,1.6412,1.6401,1.6467,1.645,1.6458,1.6542,1.6509,1.6526,1.6558,1.6562,1.66,1.66,1.6625,1.659,1.6563,1.6567,1.656,1.6593,1.6475,1.6463,1.6452,1.6415,1.64,1.6583,1.6584,1.6585,1.6585,0,1.6295,1.6287,1.6256,1.6288,1.6293,1.6267,1.6329,1.6326,1.6369,1.6406,1.6382,1.6416,1.6428,1.6423,1.6463,1.6394,1.6414,1.6462,1.6529,1.6426,1.6393,1.6379,1.6574,1.6576,1.6578,1.658,0,0,1.6096,1.6168,1.6155,1.6172,1.6217,1.6211,1.619,1.6204,1.6201,1.622,1.6205,1.6202,1.6248,1.6258,1.6302,1.6279,1.619,1.6331,1.6333,1.6304,1.6116,1.608,1.6062,1.6224,1.6222,1.622,1.6114,0,1.5983,1.5952,1.6012,1.5967,1.5961,1.6042,1.6023,1.6049,1.6083,1.6082,1.612,1.6118,1.6178,1.6185,1.6166,1.6204,1.6153,1.6213,1.6209,1.6208,1.62,1.6045,1.6005,1.5904,1.6101,1.6099,1.6098,0,1.5846,1.5862,1.5816,1.5867,1.5867,1.5849,1.5868,1.5867,1.5898,1.5925,1.5937,1.5991,1.5973,1.6038,1.6016,1.6055,1.6058,1.6076,1.6074,1.6075,1.6146,1.6042,1.5873,1.5857,1.6078,1.6079,1.6081,0,1.5706,1.5716,1.5691,1.5703,1.5761,1.5747,1.5771,1.5805,1.5811,1.5827,1.5831,1.5844,1.5851,1.5859,1.5915,1.5957,1.5886,1.5955,1.5907,1.5905,1.5887,1.5888,1.5716,1.5889,1.5889,1.5889,1.589,0,1.5573,1.5542,1.563,1.5614,1.5583,1.5652,1.5618,1.565,1.568,1.5672,1.5743,1.5733,1.5807,1.5805,1.5848,1.5824,1.5826,1.5847,1.5859,1.5841,1.5838,1.5842,1.5851,1.5885,1.5886,1.5887,1.5888,0,1.5411,1.5469,1.5447,1.5505,1.5519,1.5493,1.5543,1.5531,1.5571,1.556,1.5561,1.5623,1.5625,1.5682,1.5695,1.5725,1.5682,1.5707,1.5672,1.568,1.5629,1.5633,1.5454,1.5435,1.5619,1.5617,1.5616,0,1.5322,1.5301,1.5358,1.5359,1.538,1.5379,1.5386,1.5454,1.5458,1.5494,1.5477,1.5486,1.5496,1.5496,1.5542,1.5553,1.5578,1.5515,1.558,1.5564,1.5578,1.5579,1.5577,1.5501,1.5498,1.5497,1.5495,0,1.5159,1.5189,1.5197,1.5216,1.5222,1.524,1.5261,1.5257,1.5332,1.5333,1.5338,1.5346,1.5362,1.5369,1.5389,1.5413,1.5466,1.5475,1.5464,1.5445,1.5426,1.5437,1.5635,1.5478,1.548,1.5481,1.5482,1.5483,1.5031,1.5017,1.5056,1.5063,1.5087,1.5106,1.5099,1.5139,1.5145,1.5164,1.5204,1.5203,1.5236,1.5269,1.5288,1.5288,1.532,1.5305,1.5301,1.5296,1.5286,1.5427,1.5292,1.5292,1.5293,1.5293,1.5294,0,1.4872,1.4902,1.4908,1.4938,1.4943,1.4996,1.5023,1.5024,1.5023,1.5051,1.5061,1.5067,1.5075,1.5123,1.5137,1.5127,1.5152,1.5128,1.513,1.5135,1.5256,1.5264,1.5108,1.5108,1.5108,1.5108,1.5108,1.5108,1.479,1.477,1.4805,1.4797,1.4827,1.4828,1.4839,1.4858,1.4881,1.4885,1.4893,1.4925,1.4961,1.4979,1.4989,1.5003,1.5005,1.4973,1.4995,1.5108,1.5126,1.5143,1.5151,1.4973,1.4973,1.4873,1.4872,1.4872]}]]